Location: Sungai Bunut
(2.6333°N, 113.7333°E)
Time: 01:26:16
(UTC+00:00)

S-56A Canister/Altair - Pass Details

Date: 10 December 2023
Orbit: 640 x 2488 km, 38.9° (Epoch: 24 February)

Event Time Altitude Azimuth Distance (km) Brightness Sun altitude
Rises 11:14:23 0° 295° (WNW) 3,712 11.7 -14.1°
Reaches altitude 10° 11:16:45 10° 289° (WNW) 2,958 11.2 -14.6°
Maximum altitude 11:23:50 48° 217° (SW) 1,832 9.8 -16.2°
Drops below altitude 10° 11:34:25 10° 147° (SSE) 4,363 11.3 -18.7°
Sets 11:38:43 0° 141° (SE) 5,625 11.8 -19.7°
